DW1521 Weather Reports


Display with metric or nautical units.
time (UTC)temp
F
wind
direction
speed
MPH
gust
MPH
rain 1hr
in
rain 24hr
in
rain mn
in
humidity
%
barometer
mb
20180719173106 66 342 10.0 15.0 0.00 0.00 0.00 82 1012.0
20180719172606 66 337 9.0 15.0 0.00 0.00 0.00 82 1012.0
20180719171619 66 324 9.0 13.0 0.00 0.00 0.00 82 1012.0
20180719171107 66 313 10.0 13.0 0.00 0.00 0.00 82 1012.0
20180719170606 67 332 9.0 15.0 0.00 0.00 0.00 82 1012.0
20180719170107 67 303 10.0 13.0 0.00 0.00 0.00 82 1012.0
20180719165607 67 286 8.0 13.0 0.00 0.00 0.00 82 1012.0
20180719165106 67 336 9.0 13.0 0.00 0.00 0.00 82 1012.0
20180719164106 67 287 9.0 15.0 0.00 0.00 0.00 82 1012.0
20180719163107 67 320 7.0 14.0 0.00 0.00 0.00 82 1012.0
20180719162606 67 330 6.0 10.0 0.00 0.00 0.00 82 1012.0
20180719161609 67 307 8.0 15.0 0.00 0.00 0.00 82 1012.0
20180719161107 67 299 10.0 17.0 0.00 0.00 0.00 82 1012.0
20180719160607 67 320 9.0 15.0 0.00 0.00 0.00 82 1012.0
20180719160107 67 323 8.0 13.0 0.00 0.00 0.00 82 1012.0
20180719155607 67 313 8.0 13.0 0.00 0.00 0.00 82 1012.0
20180719155106 67 327 8.0 13.0 0.00 0.00 0.00 82 1011.1
20180719154106 67 318 8.0 13.0 0.00 0.00 0.00 82 1011.0
20180719153607 67 315 7.0 12.0 0.00 0.00 0.00 82 1011.0
20180719153108 67 332 9.0 12.0 0.00 0.00 0.00 82 1011.0
20180719152606 67 306 6.0 9.0 0.00 0.00 0.00 81 1011.0
20180719152107 67 321 6.0 10.0 0.00 0.00 0.00 81 1011.0
20180719151607 67 327 7.0 13.0 0.00 0.00 0.00 81 1011.0
20180719151110 67 330 7.0 13.0 0.00 0.00 0.00 80 1011.0
20180719150606 67 334 7.0 9.0 0.00 0.00 0.00 80 1011.0
20180719145606 67 322 8.0 15.0 0.00 0.00 0.00 80 1011.0
20180719145106 68 322 8.0 15.0 0.00 0.00 0.00 79 1011.0
20180719144610 68 347 10.0 13.0 0.00 0.00 0.00 79 1011.0
20180719143106 69 341 9.0 15.0 0.00 0.00 0.00 78 1011.0
20180719142606 69 341 8.0 13.0 0.00 0.00 0.00 78 1011.0
20180719141606 69 325 8.0 13.0 0.00 0.00 0.00 77 1011.0
20180719140606 70 320 7.0 15.0 0.00 0.00 0.00 76 1011.0
20180719140107 71 343 8.0 14.0 0.00 0.00 0.00 74 1011.0
20180719135607 71 313 10.0 15.0 0.00 0.00 0.00 75 1011.0
20180719135106 71 327 9.0 15.0 0.00 0.00 0.00 76 1011.0
20180719134606 70 310 10.0 15.0 0.00 0.00 0.00 75 1011.0
20180719133606 70 317 10.0 17.0 0.00 0.00 0.00 74 1011.0
20180719133106 71 343 11.0 17.0 0.00 0.00 0.00 74 1011.0
20180719132606 71 313 9.0 15.0 0.00 0.00 0.00 75 1011.0
20180719131606 71 349 8.0 13.0 0.00 0.00 0.00 74 1011.0
20180719130606 71 326 10.0 16.0 0.00 0.00 0.00 74 1011.0
20180719130106 71 316 10.0 15.0 0.00 0.00 0.00 74 1011.0
20180719125606 71 332 8.0 12.0 0.00 0.00 0.00 76 1011.0
20180719125106 70 339 7.0 13.0 0.00 0.00 0.00 76 1011.0
20180719123606 70 280 9.0 15.0 0.00 0.00 0.00 75 1011.0
20180719122606 70 310 10.0 20.0 0.00 0.00 0.00 74 1011.0
20180719122106 71 303 12.0 20.0 0.00 0.00 0.00 72 1010.1
20180719121106 72 340 9.0 15.0 0.00 0.00 0.00 72 1010.0
20180719120108 72 314 10.0 15.0 0.00 0.00 0.00 73 1010.0
20180719115606 72 315 11.0 17.0 0.00 0.00 0.00 74 1010.0
20180719114106 70 350 9.0 15.0 0.00 0.00 0.00 76 1010.0
20180719113606 69 332 10.0 15.0 0.00 0.00 0.00 77 1010.0
20180719113106 69 339 7.0 13.0 0.00 0.00 0.00 78 1010.0
20180719112606 68 320 9.0 14.0 0.00 0.00 0.00 77 1010.0
20180719112106 69 327 7.0 14.0 0.00 0.00 0.00 78 1010.0
20180719111606 69 323 9.0 13.0 0.00 0.00 0.00 77 1010.0
20180719110107 69 339 8.0 13.0 0.00 0.00 0.00 77 1010.0
20180719105606 69 313 9.0 15.0 0.00 0.00 0.00 78 1010.0
20180719105108 68 314 8.0 15.0 0.00 0.00 0.00 77 1010.0
20180719104606 68 348 11.0 15.0 0.00 0.00 0.00 77 1010.0
20180719104106 68 301 8.0 16.0 0.00 0.00 0.00 77 1010.0
20180719103606 68 312 7.0 10.0 0.00 0.00 0.00 77 1010.0
20180719102607 69 302 9.0 15.0 0.00 0.00 0.00 76 1010.0
20180719101606 69 336 8.0 17.0 0.00 0.00 0.00 76 1010.0
20180719101105 69 294 8.0 15.0 0.00 0.00 0.00 76 1010.0
20180719100606 69 323 12.0 17.0 0.00 0.00 0.00 76 1010.0
20180719100106 68 306 12.0 17.0 0.00 0.00 0.00 77 1010.0
20180719095606 68 301 9.0 17.0 0.00 0.00 0.00 78 1010.0
20180719095106 68 329 9.0 14.0 0.00 0.00 0.00 79 1010.0
20180719094610 67 328 10.0 15.0 0.00 0.00 0.00 81 1010.0
20180719094106 67 345 7.0 15.0 0.00 0.00 0.00 79 1010.0
20180719093607 67 326 10.0 15.0 0.00 0.00 0.00 79 1010.0
20180719093107 67 304 10.0 15.0 0.00 0.00 0.00 79 1010.0
20180719092606 67 327 9.0 15.0 0.00 0.00 0.00 78 1010.0
20180719092106 67 348 9.0 12.0 0.00 0.00 0.00 79 1010.0
20180719091106 67 329 12.0 17.0 0.00 0.00 0.00 78 1010.0
20180719090609 67 339 8.0 14.0 0.00 0.00 0.00 79 1010.0
20180719085606 66 306 12.0 16.0 0.00 0.00 0.00 80 1010.0
20180719085106 66 290 9.0 13.0 0.00 0.00 0.00 81 1010.0
20180719084605 66 312 11.0 17.0 0.00 0.00 0.00 81 1010.0
20180719083606 66 320 9.0 15.0 0.00 0.00 0.00 82 1010.0
20180719083106 65 300 10.0 15.0 0.00 0.00 0.00 82 1010.0
20180719082607 65 333 8.0 14.0 0.00 0.00 0.00 82 1010.0
20180719080606 65 296 7.0 13.0 0.00 0.00 0.00 83 1009.0
20180719075606 65 259 6.0 12.0 0.00 0.00 0.00 84 1009.0
20180719075106 65 257 6.0 10.0 0.00 0.00 0.00 84 1009.0
20180719074606 65 293 7.0 10.0 0.00 0.00 0.00 85 1009.0
20180719074106 64 242 5.0 10.0 0.00 0.00 0.00 86 1009.0
20180719073605 64 275 5.0 9.0 0.00 0.00 0.00 87 1009.0
20180719072107 64 280 5.0 6.0 0.00 0.00 0.00 86 1009.0
20180719071606 64 294 5.0 6.0 0.00 0.00 0.00 84 1009.0
20180719070605 63 297 4.0 8.0 0.00 0.00 0.00 83 1009.0
20180719070107 63 312 6.0 8.0 0.00 0.00 0.00 83 1009.0
20180719064605 63 322 7.0 10.0 0.00 0.00 0.00 83 1009.0
20180719064106 63 329 5.0 12.0 0.00 0.00 0.00 83 1009.0
20180719063605 63 351 5.0 10.0 0.00 0.00 0.00 82 1009.0
20180719061607 63 337 6.0 12.0 0.00 0.00 0.00 82 1009.0
20180719060106 63 347 7.0 10.0 0.00 0.00 0.00 82 1009.0
20180719055607 63 346 8.0 13.0 0.00 0.00 0.00 82 1009.0
20180719055106 63 325 7.0 14.0 0.00 0.00 0.00 82 1009.0
20180719054106 63 351 5.0 9.0 0.00 0.00 0.00 81 1009.0
20180719053106 63 334 7.0 13.0 0.00 0.00 0.00 81 1009.0
20180719052106 63 321 6.0 12.0 0.00 0.00 0.00 81 1009.0
20180719051606 63 321 6.0 13.0 0.00 0.00 0.00 81 1009.0
20180719051106 63 341 7.0 13.0 0.00 0.00 0.00 81 1009.0
20180719050606 63 339 6.0 13.0 0.00 0.00 0.00 81 1009.0
20180719050106 63 317 7.0 12.0 0.00 0.00 0.00 81 1009.0
20180719045606 63 326 6.0 9.0 0.00 0.00 0.00 81 1009.0
20180719045106 63 312 7.0 10.0 0.00 0.00 0.00 81 1009.0
20180719044606 63 323 6.0 9.0 0.00 0.00 0.00 80 1009.0
20180719043606 63 344 9.0 17.0 0.00 0.00 0.00 80 1009.0
20180719043105 63 340 9.0 17.0 0.00 0.00 0.00 79 1009.0
20180719042606 63 9 10.0 15.0 0.00 0.00 0.00 79 1009.0
20180719041606 63 338 8.0 15.0 0.00 0.00 0.00 78 1009.0
20180719041107 64 327 9.0 13.0 0.00 0.00 0.00 78 1009.0
20180719040106 64 337 8.0 13.0 0.00 0.00 0.00 78 1009.0
20180719035106 64 327 7.0 13.0 0.00 0.00 0.00 77 1008.1
20180719034606 64 350 9.0 14.0 0.00 0.00 0.00 77 1008.0
20180719033105 65 345 7.0 10.0 0.00 0.00 0.00 76 1008.0
20180719032106 65 354 5.0 13.0 0.00 0.00 0.00 76 1008.0
20180719031606 65 326 6.0 12.0 0.00 0.00 0.00 76 1008.0
20180719031107 65 326 8.0 13.0 0.00 0.00 0.00 76 1008.0
20180719030606 65 328 11.0 15.0 0.00 0.00 0.00 76 1008.0
20180719025606 65 301 9.0 13.0 0.00 0.00 0.00 76 1008.0
20180719025105 65 337 9.0 13.0 0.00 0.00 0.00 76 1008.0
20180719024606 65 293 9.0 14.0 0.00 0.00 0.00 77 1008.0
20180719024106 65 303 9.0 13.0 0.00 0.00 0.00 77 1008.0
20180719023106 65 298 9.0 13.0 0.00 0.00 0.00 77 1008.0
20180719022106 65 291 8.0 15.0 0.00 0.00 0.00 77 1008.0
20180719021606 65 305 9.0 13.0 0.00 0.00 0.00 77 1008.0
20180719021106 65 301 9.0 13.0 0.00 0.00 0.00 78 1008.0
20180719020606 65 277 7.0 12.0 0.00 0.00 0.00 78 1008.0
20180719015606 64 271 10.0 15.0 0.00 0.00 0.00 78 1008.0
20180719015105 64 279 7.0 10.0 0.00 0.00 0.00 79 1009.0
20180719014106 64 262 6.0 12.0 0.00 0.00 0.00 80 1009.0
20180719013105 64 314 7.0 17.0 0.00 0.00 0.00 82 1009.0
20180719012606 63 298 9.0 12.0 0.00 0.00 0.00 82 1009.0
20180719011106 63 265 7.0 10.0 0.00 0.00 0.00 82 1009.0
20180719010606 63 302 6.0 9.0 0.00 0.00 0.00 82 1009.0
20180719010106 63 316 5.0 8.0 0.00 0.00 0.00 82 1009.0
20180719005605 63 346 3.0 6.0 0.00 0.00 0.00 82 1009.0
20180719005105 63 309 3.0 6.0 0.00 0.00 0.00 82 1009.0
20180719004605 63 336 4.0 7.0 0.00 0.00 0.00 82 1009.0
20180719004106 63 333 5.0 8.0 0.00 0.00 0.00 82 1009.0
20180719003106 63 322 6.0 8.0 0.00 0.00 0.00 82 1010.0
20180719002606 63 305 5.0 8.0 0.00 0.00 0.00 82 1010.0
20180719002105 63 313 5.0 6.0 0.00 0.00 0.00 82 1010.0
20180719001106 63 349 5.0 8.0 0.00 0.00 0.00 82 1010.0
20180719000605 63 318 5.0 8.0 0.00 0.00 0.00 82 1010.0
20180718235606 63 348 6.0 8.0 0.00 0.00 0.00 82 1010.0
20180718234606 63 298 4.0 8.0 0.00 0.00 0.00 81 1010.0
20180718233605 63 337 2.0 5.0 0.00 0.00 0.00 81 1010.0
20180718233105 63 16 0.0 2.0 0.00 0.00 0.00 80 1010.0
20180718232105 63 351 3.0 5.0 0.00 0.00 0.00 80 1010.0
20180718231605 63 314 3.0 6.0 0.00 0.00 0.00 80 1010.0
20180718231106 64 352 3.0 6.0 0.00 0.00 0.00 79 1010.0
20180718230605 64 329 3.0 6.0 0.00 0.00 0.00 79 1010.0
20180718225606 64 317 5.0 7.0 0.00 0.00 0.00 79 1010.0
20180718224605 64 314 5.0 8.0 0.00 0.00 0.00 79 1010.0
20180718223605 64 341 3.0 6.0 0.00 0.00 0.00 78 1010.0
20180718222605 64 329 3.0 6.0 0.00 0.00 0.00 77 1010.0
20180718222105 65 320 4.0 6.0 0.00 0.00 0.00 77 1010.0
20180718221605 65 322 5.0 7.0 0.00 0.00 0.00 77 1010.0
20180718221106 65 334 3.0 6.0 0.00 0.00 0.00 77 1010.0
20180718220605 65 345 4.0 6.0 0.00 0.00 0.00 77 1010.0
20180718215606 65 344 5.0 6.0 0.00 0.00 0.00 77 1010.0
20180718214106 65 348 3.0 6.0 0.00 0.00 0.00 76 1010.0
20180718212606 65 313 5.0 6.0 0.00 0.00 0.00 76 1011.0
20180718212105 65 309 5.0 6.0 0.00 0.00 0.00 76 1011.0
20180718211606 65 291 6.0 9.0 0.00 0.00 0.00 76 1011.0
20180718211105 65 318 6.0 9.0 0.00 0.00 0.00 76 1011.0
20180718210606 65 283 7.0 12.0 0.00 0.00 0.00 76 1011.0
20180718210106 65 281 6.0 8.0 0.00 0.00 0.00 76 1011.0
20180718205606 65 305 6.0 8.0 0.00 0.00 0.00 75 1011.0
20180718204605 66 307 7.0 10.0 0.00 0.00 0.00 75 1011.0
20180718203106 66 306 8.0 13.0 0.00 0.00 0.00 75 1011.0
20180718201606 65 290 6.0 15.0 0.00 0.00 0.00 75 1011.0
20180718200106 65 329 7.0 15.0 0.00 0.00 0.00 75 1011.0
20180718195606 65 319 6.0 10.0 0.00 0.00 0.00 75 1011.0
20180718195105 65 322 9.0 13.0 0.00 0.00 0.00 75 1011.0
20180718194105 65 310 8.0 15.0 0.00 0.00 0.00 74 1011.0
20180718193106 65 317 8.0 14.0 0.00 0.00 0.00 73 1011.0
20180718192605 65 286 9.0 15.0 0.00 0.00 0.00 73 1011.0
20180718192105 65 301 6.0 13.0 0.00 0.00 0.00 73 1010.1
20180718191605 66 294 6.0 15.0 0.00 0.00 0.00 72 1010.0
20180718191106 66 293 8.0 15.0 0.00 0.00 0.00 71 1010.0
20180718190106 66 293 7.0 12.0 0.00 0.00 0.00 70 1010.0
20180718185605 66 313 7.0 13.0 0.00 0.00 0.00 70 1010.0
20180718185105 67 289 9.0 13.0 0.00 0.00 0.00 70 1010.0
20180718184605 67 286 9.0 15.0 0.00 0.00 0.00 69 1010.0
20180718184106 67 306 10.0 13.0 0.00 0.00 0.00 69 1010.0
20180718183606 67 287 9.0 16.0 0.00 0.00 0.00 69 1010.0
20180718183105 67 298 9.0 16.0 0.00 0.00 0.00 68 1010.0
20180718182605 68 296 9.0 15.0 0.00 0.00 0.00 68 1010.0
20180718182105 68 325 8.0 13.0 0.00 0.00 0.00 68 1010.0
20180718181106 68 319 9.0 17.0 0.00 0.00 0.00 66 1010.0
20180718175606 68 305 10.0 17.0 0.00 0.00 0.00 66 1010.0
20180718175106 68 303 11.0 17.0 0.00 0.00 0.00 66 1010.0
20180718174606 69 290 10.0 17.0 0.00 0.00 0.00 66 1010.0
20180718174106 69 289 11.0 17.0 0.00 0.00 0.00 66 1010.0
20180718173605 69 287 7.0 13.0 0.00 0.00 0.00 66 1010.0